IZ8GMP-13 Weather Reports


time (UTC)temp
C
wind
direction
speed
KPH
gust
KPH
rain 1hr
cm
rain 24hr
cm
rain mn
cm
humidity
%
barometer
mb
20260504043525 15 0.0 0.0 0.00 0.00 0.00 53 1019.4
20260504041522 15 0.0 0.0 0.00 0.00 0.00 49 1019.3
20260504035518 15 0.0 0.0 0.00 0.00 0.00 49 1019.3
20260504033515 15 0.0 0.0 0.00 0.00 0.00 52 1019.4
20260504031511 14 0.0 0.0 0.00 0.00 0.00 50 1019.4
20260504025920 15 0.0 0.0 0.00 0.00 0.00 48 1019.3
20260504025508 15 0.0 0.0 0.00 0.00 0.00 48 1019.3
20260504023504 15 0.0 0.0 0.00 0.00 0.00 47 1019.3
20260504021501 15 0.0 0.0 0.00 0.00 0.00 47 1019.4
20260504015458 15 0.0 0.0 0.00 0.00 0.00 48 1019.4
20260504013454 15 0.0 0.0 0.00 0.00 0.00 48 1019.5
20260504011451 15 0.0 0.0 0.00 0.00 0.00 47 1019.5
20260504005447 15 0.0 0.0 0.00 0.00 0.00 49 1019.7
20260504003444 15 0.0 0.0 0.00 0.00 0.00 54 1019.7
20260504001440 15 0.0 0.0 0.00 0.00 0.00 43 1019.6
20260503225427 15 0.0 0.0 0.00 0.00 0.00 46 1020.0
20260503223423 15 0.0 0.0 0.00 0.00 0.00 46 1020.1
20260503221419 15 0.0 0.0 0.00 0.00 0.00 44 1020.0
20260503215416 15 0.0 0.0 0.00 0.00 0.00 61 1020.1
20260503213412 16 0.0 0.0 0.00 0.00 0.00 55 1020.2
20260503211409 15 0.0 0.0 0.00 0.00 0.00 53 1020.2
20260503205406 16 0.0 0.0 0.00 0.00 0.00 52 1020.1
20260503203402 16 0.0 0.0 0.00 0.00 0.00 53 1020.1
20260503201359 17 0.0 0.0 0.00 0.00 0.00 59 1020.1
20260503195355 17 0.0 0.0 0.00 0.00 0.00 59 1020.2
20260503193352 17 0.0 0.0 0.00 0.00 0.00 58 1020.3
20260503191348 17 0.0 0.0 0.00 0.00 0.00 59 1020.0
20260503185345 17 0.0 0.0 0.00 0.00 0.00 64 1019.9
20260503183341 17 0.0 0.0 0.00 0.00 0.00 62 1019.8
20260503181338 17 0.0 0.0 0.00 0.00 0.00 61 1019.6
20260503175334 17 0.0 0.0 0.00 0.00 0.00 60 1019.4
20260503173331 17 0.0 0.0 0.00 0.00 0.00 61 1019.3
20260503171327 18 0.0 0.0 0.00 0.00 0.00 57 1019.2
20260503131246 18 0.0 0.0 0.00 0.00 0.00 60 1019.8
20260503071143 18 0.0 0.0 0.00 0.00 0.00 51 1021.1
20260503053126 16 0.0 0.0 0.00 0.00 0.00 57 1020.9